Terminal Aerodrome Forecast
Issued by NWS

Home | Current Version | Previous Version | Text Only | Print | Product List | Glossary On
Versions: 1 2 3 4 5 6 7 8 9 10 11 12
461
FTUS45 KRIW 122331
TAFRKS
TAF
KRKS 122331Z 1300/1324 23011KT P6SM FEW130 BKN250
     FM130400 24009KT P6SM SCT100 BKN200
     FM131600 24016G24KT P6SM SCT090 BKN150
     FM131900 27024G32KT P6SM FEW090=

USA.gov is the U.S. government's official web portal to all federal, state and local government web resources and services.